Simultaneous Nadir Overpasses (SNOs) Predictions

Prediction of SNOs between LANDSAT-8 and METOP-B Satellite Orbit:

Table of predicted SNOs for the next 14.0 days since TLE Epoch: 4/21/2018
Index Date (LANDSAT-8) Time (LANDSAT-8) Lat,Lon (LANDSAT-8) SZA (LANDSAT-8 ) Date (METOP-B) Time (METOP-B) Lat,Lon (METOP-B) SZA (METOP-B ) Distance(km) Time Diff (sec)
1 04/21/2018 16:59:15 81.15, -35.21 71.24 04/21/2018 16:58:53 81.15, -35.16 71.24 0.86 22
2 04/21/2018 17:48:41 -81.16, 132.70 108.74 04/21/2018 17:49:33 -81.16, 132.51 108.74 3.15 52
3 04/24/2018 12:33:29 81.14, 31.17 70.31 04/24/2018 12:33:14 81.15, 31.24 70.32 1.52 15
4 04/24/2018 13:22:54 -81.16,-160.90 109.66 04/24/2018 13:23:53 -81.16,-161.04 109.65 2.27 59
5 04/27/2018 08:07:41 81.16, 97.87 69.45 04/27/2018 08:07:33 81.16, 98.01 69.47 2.48 8
6 04/27/2018 08:57:07 -81.18, -94.18 110.51 04/27/2018 08:58:13 -81.18, -94.22 110.49 0.85 66
7 04/30/2018 02:52:30 -81.12, -3.88 111.49 04/30/2018 02:51:16 -81.13, -3.80 111.51 1.58 74
8 04/30/2018 03:41:55 81.15, 164.16 68.57 04/30/2018 03:41:55 81.15, 164.01 68.55 2.62 0
9 04/30/2018 04:31:21 -81.17, -27.86 111.40 04/30/2018 04:32:34 -81.18, -27.80 111.36 1.08 73
10 05/02/2018 22:26:43 -81.14, 62.77 112.29 05/02/2018 22:25:37 -81.13, 62.61 112.34 2.82 66




NCC Satellite Simultaneous Nadir Overpasses (SNOs) Prediction Service
